Regional Weather Roundup
Issued by NWS

Home | Current Version | Previous Version | Graphics & Text | Print | Product List | Glossary On
Versions: 1 2 3 4 5 6 7 8 9 10 11 12 13 14 15 16 17 18 19 20 21 22 23 24 25 26 27 28 29 30 31 32 33 34 35 36 37 38 39 40 41 42 43 44 45 46 47 48 49 50
000
ASUS43 KBIS 271820
RWRND

NORTH DAKOTA REGIONAL WEATHER ROUNDUP
NATIONAL WEATHER SERVICE BISMARCK ND
1200 PM CST FRI FEB 27 2015

NOTE: "FAIR" INDICATES FEW OR NO CLOUDS BELOW 12,000 FEET WITH NO
SIGNIFICANT WEATHER AND/OR OBSTRUCTIONS TO VISIBILITY.


NDZ001>003-009>011-017-271900-
NORTHWEST NORTH DAKOTA

CITY           SKY/WX    TMP DP  RH WIND       PRES   REMARKS
WILLISTON      SUNNY     12   0  58 S10       30.19F WCI  -1
6HR MIN TEMP: -14; 6HR MAX TEMP:  12;

MINOT          SUNNY     10  -3  55 S12       30.27F WCI  -5
MINOT AFB      SUNNY     10  -1  61 SW10      30.27F WCI  -4
$$

NDZ018>021-031>035-040>046-271900-
SOUTHWEST NORTH DAKOTA

CITY           SKY/WX    TMP DP  RH WIND       PRES   REMARKS
BISMARCK       SUNNY     15   1  53 S13       30.35F WCI   1
6HR MIN TEMP: -16; 6HR MAX TEMP:  15;

DICKINSON      SUNNY     18   3  52 S17       30.15F WCI   3
GARRISON         N/A      8   1  73 S9        30.28F WCI  -5
6HR MIN TEMP: -19; 6HR MAX TEMP:   8;

HETTINGER ARPT SUNNY     17   4  56 S15       30.18F WCI   2
$$

NDZ004>008-012>016-024-026-027-054-271900-
NORTHEAST NORTH DAKOTA

CITY           SKY/WX    TMP DP  RH WIND       PRES   REMARKS
GRAND FORKS    MOSUNNY   13  -1  54 SW3       30.44S
GRND FRKS AFB  SUNNY     15  -2  47 W8        30.43S WCI   4
DEVILS LAKE    SUNNY      9  -2  61 SW12      30.36R WCI  -6
$$

NDZ022-023-025-028>030-036>039-047>053-271900-
SOUTHEAST NORTH DAKOTA

CITY           SKY/WX    TMP DP  RH WIND       PRES   REMARKS
FARGO          SUNNY      9  -1  64 SW9       30.49S WCI  -4
6HR MIN TEMP: -12; 6HR MAX TEMP:   9;

JAMESTOWN      SUNNY     10   0  63 W8        30.39S WCI  -2
$$



USA.gov is the U.S. government's official web portal to all federal, state and local government web resources and services.